This demonstration page uses our WeatherBlox Daily Observations layout. Learn more.

Left ArrowRight Arrow

41.86663, -103.66717

Hourly Observations for August 30, 2020

Temp ( °F °C ) Dew Point ( °F °C ) Humidity (%) Winds ( mph kmh ) Pressure ( in mb ) Visibility ( mi km ) Precip ( " mm )
12:53 am 00:53 Clear 64 17.8 52 11.1 65 65 E 8 13 29.67 1005 10 16 N/A
1:53 am 01:53 Clear 61 16.1 53 11.7 75 75 E 7 11 29.67 1005 10 16 N/A
2:53 am 02:53 Clear 60 15.6 54 12.2 80 80 N N/A 29.64 1004 10 16 N/A
3:53 am 03:53 Clear 58 14.4 53 11.7 84 84 N N/A 29.64 1004 10 16 N/A
4:53 am 04:53 Clear 59 15 51 10.6 75 75 N N/A 29.63 1003 10 16 N/A
5:53 am 05:53 Clear 56 13.3 49 9.4 77 77 undefined N/A 29.62 1003 10 16 N/A
6:53 am 06:53 Sunny 57 13.9 49 9.4 74 74 VRB 3 6 29.63 1003 10 16 N/A
7:53 am 07:53 Sunny 67 19.4 47 8.3 49 49 NW 6 9 29.62 1003 10 16 N/A
8:53 am 08:53 Sunny 74 23.3 47 8.3 38 38 NW 8 13 29.60 1003 10 16 N/A
9:53 am 09:53 Sunny 84 28.9 43 6.1 24 24 WNW 21 33 29.58 1002 10 16 N/A
10:53 am 10:53 Sunny 88 31.1 41 5 19 19 WNW 20 31 29.57 1001 10 16 N/A
11:53 am 11:53 Sunny 92 33.3 38 3.3 15 15 WNW 18 30 29.54 1000 10 16 N/A
12:53 pm 12:53 Sunny 94 34.4 34 1.1 12 12 WNW 13 20 29.53 1000 10 16 N/A
1:53 pm 13:53 Sunny 95 35 32 undefined 11 11 WNW 14 22 29.52 1000 10 16 N/A
2:53 pm 14:53 Sunny 94 34.4 31 -0.6 11 11 undefined N/A 29.50 999 10 16 N/A
3:53 pm 15:53 Sunny 96 35.6 32 undefined 10 10 N 8 13 29.50 999 10 16 N/A
4:53 pm 16:53 Sunny 88 31.1 41 5 19 19 undefined N/A 29.52 1000 10 16 N/A
5:53 pm 17:53 Sunny 80 26.7 48 8.9 33 33 NE 22 35 29.55 1001 10 16 N/A
6:53 pm 18:53 Sunny 74 23.3 46 7.8 37 37 NNE 24 39 29.63 1004 10 16 N/A
7:53 pm 19:53 Clear 70 21.1 44 6.7 39 39 NNE 23 37 29.70 1006 10 16 N/A
8:53 pm 20:53 Clear 64 17.8 42 5.6 45 45 NNE 25 41 29.78 1009 10 16 N/A
9:53 pm 21:53 Mostly Clear 61 16.1 40 4.4 46 46 undefined N/A 29.84 1011 10 16 N/A
10:53 pm 22:53 Cloudy 59 15 39 3.9 48 48 NNE 9 15 29.92 1013 10 16 N/A
11:53 pm 23:53 Cloudy 58 14.4 40 4.4 51 51 NNE 5 7 29.91 1013 10 16 N/A

Powered by AerisWeather